{"data":{"norad_id":61575,"intl_designator":"2024-187B","name":"STARLINK-11376 [DTC]","alt_names":[],"object_type":"PAYLOAD","status":"ACTIVE","operator":null,"country":"US","launch_date":"2024-10-18","launch_site_code":"AFETR","launch_vehicle":null,"mission":null,"orbit_class":"UNKNOWN","rcs_meters":null,"size_class":null,"mass_kg":null,"dimensions":null,"purposes":["comms"],"wikipedia_slug":null,"has_3d_model":false,"image_url":null,"decayed_at":null,"tle_current":{"epoch":"2026-05-24T19:01:41.508192Z","epoch_age_seconds":86906,"freshness":"FRESH","line1":"1 61575U 24187B   26144.79284153  .00000758  00000+0  11103-4 0  9991","line2":"2 61575  53.1593 281.0579 0000339 159.6023 200.5008 15.69709337 92652","mean_motion":15.69709337,"eccentricity":3.39e-5,"inclination_deg":53.1593,"raan_deg":281.0579,"arg_perigee_deg":159.6023,"mean_anomaly_deg":200.5008,"bstar":1.1103e-5,"rev_number":9265,"period_min":91.736728963599,"perigee_km":359.50023402721,"apogee_km":359.95706131812,"semimajor_km":6737.8656476727,"source":"CELESTRAK","updated_at":"2026-05-25T13:38:19.401702Z"}}}